Location: Campo Claro
(10.4907°N, 66.8285°W)
Time: 03:18:28
(UTC+00:00)

Cosmos 1553 Rocket - Pass Details

Date: 09 July 2022
Orbit: 941 x 1009 km, 82.9° (Epoch: 14 August)

Event Time Altitude Azimuth Distance (km) Brightness Sun altitude
Rises 23:17:41 0° 192° (SSW) 3,691 6.9 -6.2°
Reaches altitude 10° 23:20:13 10° 195° (SSW) 2,751 6.3 -6.8°
Maximum altitude 23:26:26 60° 274° (W) 1,136 4.7 -8.2°
Drops below altitude 10° 23:32:44 10° 353° (N) 2,777 6.8 -9.6°
Sets 23:35:19 0° 357° (N) 3,728 7.5 -10.2°
